DW4236 Weather Reports


Display with metric or nautical units.
time (UTC)temp
F
wind
direction
speed
MPH
gust
MPH
rain 1hr
in
rain 24hr
in
rain mn
in
humidity
%
barometer
mb
20260507020606 58 305 3.0 8.0 0.00 0.08 0.08 85 1010.2
20260507020105 58 317 3.0 6.0 0.00 0.08 0.08 85 1010.1
20260507015605 58 341 2.0 3.0 0.00 0.08 0.08 85 1010.1
20260507015105 58 309 2.0 5.0 0.00 0.08 0.08 85 1010.1
20260507014605 58 305 3.0 7.0 0.00 0.08 0.08 84 1010.2
20260507014104 58 325 5.0 12.0 0.00 0.08 0.08 83 1010.0
20260507013605 58 318 3.0 8.0 0.00 0.08 0.08 83 1010.0
20260507013105 58 342 3.0 9.0 0.00 0.08 0.08 84 1010.0
20260507012605 59 346 5.0 12.0 0.00 0.08 0.08 86 1010.0
20260507012105 59 329 3.0 7.0 0.00 0.08 0.08 87 1009.9
20260507011606 60 298 6.0 9.0 0.00 0.08 0.08 87 1009.9
20260507010604 60 349 3.0 10.0 0.00 0.08 0.08 87 1009.6
20260507010104 60 329 3.0 9.0 0.00 0.08 0.08 88 1009.6
20260507005604 60 299 3.0 9.0 0.00 0.08 0.08 88 1009.3
20260507005105 61 289 6.0 10.0 0.00 0.08 0.08 88 1009.0
20260507004605 61 294 2.0 7.0 0.00 0.08 0.08 88 1008.9
20260507004105 61 300 5.0 8.0 0.00 0.08 0.08 88 1008.8
20260507003607 61 329 5.0 8.0 0.00 0.08 0.08 89 1008.7
20260507003105 62 3 2.0 5.0 0.00 0.08 0.08 89 1008.5
20260507002606 62 330 2.0 3.0 0.00 0.08 0.08 90 1008.4
20260507002104 62 358 1.0 3.0 0.00 0.08 0.08 89 1008.5
20260507001605 62 350 3.0 6.0 0.00 0.08 0.08 89 1008.4
20260507001105 63 336 3.0 6.0 0.00 0.08 0.08 90 1008.4
20260507000604 63 280 0.0 3.0 0.00 0.08 0.08 90 1007.9
20260507000105 63 280 2.0 3.0 0.00 0.08 0.08 90 1007.8
20260506235605 63 268 0.0 3.0 0.00 0.08 0.08 89 1007.7
20260506235105 63 282 1.0 5.0 0.00 0.08 0.08 89 1007.7
20260506234606 63 247 0.0 2.0 0.00 0.08 0.08 89 1007.7
20260506233605 63 231 2.0 8.0 0.00 0.08 0.08 89 1007.7
20260506233105 63 251 2.0 8.0 0.00 0.08 0.08 89 1007.7
20260506232104 64 290 0.0 2.0 0.00 0.08 0.08 89 1007.6
20260506231604 64 289 0.0 2.0 0.00 0.08 0.08 88 1007.5
20260506231105 64 285 1.0 3.0 0.00 0.08 0.08 89 1007.4
20260506230105 64 284 1.0 3.0 0.00 0.08 0.08 88 1007.4
20260506225605 64 282 1.0 3.0 0.00 0.08 0.08 88 1007.4
20260506224605 64 277 1.0 12.0 0.00 0.08 0.08 88 1007.3
20260506224105 64 289 3.0 8.0 0.00 0.08 0.08 88 1007.3
20260506223605 64 276 3.0 8.0 0.00 0.08 0.08 88 1007.2
20260506223105 64 298 3.0 10.0 0.00 0.08 0.08 89 1007.2
20260506222605 64 274 5.0 13.0 0.00 0.08 0.08 89 1007.2
20260506221605 64 262 2.0 7.0 0.00 0.08 0.08 89 1007.1
20260506221105 64 272 3.0 10.0 0.00 0.08 0.08 89 1007.1
20260506220604 64 298 5.0 10.0 0.00 0.08 0.08 89 1007.2
20260506220104 64 290 3.0 9.0 0.00 0.08 0.08 89 1007.1
20260506215105 64 301 8.0 14.0 0.00 0.08 0.08 89 1007.2
20260506214604 64 278 3.0 8.0 0.00 0.08 0.08 90 1007.1
20260506214105 64 283 3.0 9.0 0.00 0.08 0.08 90 1007.1
20260506213605 64 263 5.0 8.0 0.00 0.08 0.08 91 1007.1
20260506213105 64 253 1.0 3.0 0.00 0.08 0.08 91 1007.1
20260506212606 64 278 0.0 3.0 0.00 0.08 0.08 91 1007.0
20260506212105 64 272 1.0 3.0 0.00 0.08 0.08 92 1006.9
20260506211604 64 255 1.0 3.0 0.00 0.08 0.08 92 1006.6
20260506211105 64 235 1.0 3.0 0.00 0.08 0.08 92 1006.8
20260506210606 64 194 1.0 2.0 0.00 0.08 0.08 92 1006.8
20260506210105 64 199 0.0 2.0 0.00 0.08 0.08 92 1006.8
20260506205604 64 287 0.0 6.0 0.00 0.08 0.08 92 1006.8
20260506205105 64 278 2.0 3.0 0.00 0.08 0.08 92 1006.8
20260506204606 64 240 1.0 3.0 0.01 0.08 0.08 91 1006.8
20260506204106 64 257 1.0 3.0 0.01 0.08 0.08 91 1006.7
20260506203604 63 256 2.0 5.0 0.01 0.08 0.08 91 1006.8
20260506203105 64 226 1.0 3.0 0.01 0.08 0.08 91 1006.6
20260506202605 64 252 1.0 3.0 0.01 0.08 0.08 91 1006.6
20260506202104 64 218 2.0 5.0 0.01 0.08 0.08 91 1006.7
20260506201604 64 232 1.0 5.0 0.01 0.08 0.08 91 1006.8
20260506201105 63 246 2.0 6.0 0.01 0.08 0.08 91 1006.9
20260506200604 63 250 3.0 12.0 0.01 0.08 0.08 91 1007.0
20260506200104 64 269 4.0 12.0 0.01 0.08 0.08 91 1007.0
20260506195605 64 228 2.0 6.0 0.01 0.08 0.08 91 1007.1
20260506195104 64 255 3.0 10.0 0.01 0.08 0.08 91 1007.1
20260506194604 64 269 2.0 8.0 0.00 0.07 0.07 92 1007.2
20260506194105 64 262 3.0 7.0 0.00 0.07 0.07 92 1007.3
20260506193604 64 235 2.0 9.0 0.00 0.07 0.07 92 1007.3
20260506192604 64 262 3.0 8.0 0.00 0.07 0.07 92 1007.4
20260506192105 64 217 2.0 5.0 0.00 0.07 0.07 92 1007.5
20260506191604 64 222 2.0 8.0 0.00 0.07 0.07 92 1007.5
20260506191105 63 220 2.0 5.0 0.00 0.07 0.07 92 1007.7
20260506190605 63 275 2.0 5.0 0.00 0.07 0.07 92 1007.7
20260506185605 63 264 3.0 7.0 0.01 0.07 0.07 91 1007.7
20260506185105 63 245 4.0 12.0 0.01 0.07 0.07 91 1007.8
20260506184604 63 249 2.0 5.0 0.02 0.07 0.07 91 1007.8
20260506184105 63 265 2.0 5.0 0.02 0.07 0.07 91 1007.9
20260506183605 63 270 3.0 8.0 0.02 0.07 0.07 91 1007.8
20260506182105 63 281 4.0 10.0 0.02 0.07 0.07 90 1007.9
20260506181605 63 272 3.0 12.0 0.02 0.07 0.07 90 1007.8
20260506180105 63 248 4.0 8.0 0.02 0.07 0.07 90 1008.0
20260506175604 63 280 2.0 9.0 0.02 0.06 0.06 90 1008.0
20260506175105 63 261 4.0 10.0 0.02 0.06 0.06 90 1008.1
20260506174606 63 305 2.0 8.0 0.01 0.05 0.05 90 1008.0
20260506174104 63 252 4.0 12.0 0.01 0.05 0.05 90 1008.0
20260506173604 63 279 4.0 12.0 0.01 0.05 0.05 90 1008.0
20260506173104 63 291 2.0 7.0 0.02 0.05 0.05 90 1008.2
20260506172605 63 269 2.0 3.0 0.02 0.05 0.05 90 1008.1
20260506171605 63 285 1.0 5.0 0.03 0.05 0.05 89 1007.9
20260506171104 63 263 2.0 6.0 0.04 0.05 0.05 89 1008.1
20260506170605 63 219 2.0 5.0 0.04 0.05 0.05 89 1008.0
20260506170104 63 235 1.0 6.0 0.04 0.05 0.05 89 1008.0
20260506165105 64 190 0.0 2.0 0.04 0.04 0.04 89 1008.0
20260506164604 64 190 2.0 3.0 0.04 0.04 0.04 88 1008.1
20260506164112 64 220 1.0 3.0 0.04 0.04 0.04 88 1008.2
20260506163604 64 221 0.0 0.0 0.04 0.04 0.04 87 1008.5
20260506163104 64 221 0.0 0.0 0.03 0.03 0.03 87 1008.8
20260506162105 64 221 0.0 1.0 0.02 0.02 0.02 86 1009.1
20260506161108 64 221 0.0 0.0 0.01 0.01 0.01 85 1009.1
20260506160105 65 220 0.0 2.0 0.01 0.01 0.01 83 1009.1
20260506155605 65 216 1.0 6.0 0.01 0.01 0.01 82 1009.1
20260506155104 65 229 3.0 10.0 0.00 0.00 0.00 81 1009.1
20260506154605 66 256 1.0 6.0 0.00 0.00 0.00 81 1009.2
20260506154105 66 249 2.0 5.0 0.00 0.00 0.00 80 1009.2
20260506153604 66 225 2.0 5.0 0.00 0.00 0.00 80 1009.1
20260506153104 66 268 1.0 10.0 0.00 0.00 0.00 79 1009.1
20260506152604 67 222 2.0 9.0 0.00 0.00 0.00 78 1009.2
20260506152104 67 275 2.0 6.0 0.00 0.00 0.00 76 1009.3
20260506151604 67 251 3.0 6.0 0.00 0.00 0.00 75 1009.4
20260506151105 67 265 3.0 8.0 0.00 0.00 0.00 75 1009.4
20260506150605 67 281 3.0 9.0 0.00 0.00 0.00 75 1009.4
20260506150105 68 263 2.0 9.0 0.00 0.00 0.00 75 1009.4
20260506145604 68 246 4.0 9.0 0.00 0.00 0.00 74 1009.3
20260506145105 68 197 1.0 3.0 0.00 0.00 0.00 74 1009.3
20260506144604 68 241 2.0 7.0 0.00 0.00 0.00 74 1009.4
20260506144105 68 235 2.0 7.0 0.00 0.00 0.00 74 1009.3
20260506143605 68 246 1.0 3.0 0.00 0.00 0.00 74 1009.3
20260506143106 68 279 2.0 9.0 0.00 0.00 0.00 74 1009.3
20260506142106 68 279 1.0 5.0 0.00 0.00 0.00 74 1009.4
20260506141605 68 214 3.0 10.0 0.00 0.00 0.00 74 1009.5
20260506140104 68 260 1.0 8.0 0.00 0.00 0.00 75 1009.6
20260506135604 67 253 2.0 8.0 0.00 0.00 0.00 75 1009.7
20260506135105 67 243 3.0 9.0 0.00 0.00 0.00 76 1009.7
20260506134604 67 273 3.0 8.0 0.00 0.00 0.00 75 1009.6
20260506134104 67 234 3.0 8.0 0.00 0.00 0.00 76 1009.5
20260506133604 67 211 3.0 7.0 0.00 0.00 0.00 76 1009.4
20260506132605 67 242 5.0 9.0 0.00 0.00 0.00 75 1009.3
20260506131605 67 256 3.0 7.0 0.00 0.00 0.00 76 1009.5
20260506131104 67 240 3.0 15.0 0.00 0.00 0.00 76 1009.4
20260506130604 67 239 3.0 9.0 0.00 0.00 0.00 76 1009.1
20260506130104 67 271 5.0 9.0 0.00 0.00 0.00 76 1009.2
20260506125105 67 263 5.0 10.0 0.00 0.00 0.00 76 1009.1
20260506124604 67 260 3.0 13.0 0.00 0.00 0.00 76 1009.2
20260506124105 67 232 3.0 13.0 0.00 0.00 0.00 76 1009.3
20260506123605 67 275 4.0 10.0 0.00 0.00 0.00 76 1009.4
20260506123105 66 247 2.0 10.0 0.00 0.00 0.00 76 1009.4
20260506122604 66 282 5.0 9.0 0.00 0.00 0.00 76 1009.4
20260506122105 66 264 3.0 12.0 0.00 0.00 0.00 76 1009.4
20260506121604 66 234 3.0 8.0 0.00 0.00 0.00 76 1009.3
20260506121104 66 290 6.0 12.0 0.00 0.00 0.00 76 1009.4
20260506120605 66 252 6.0 12.0 0.00 0.00 0.00 76 1009.5
20260506115605 66 271 5.0 10.0 0.00 0.00 0.00 76 1009.6
20260506115105 66 276 2.0 15.0 0.00 0.00 0.00 77 1009.7
20260506114605 66 251 5.0 12.0 0.00 0.00 0.00 77 1009.7
20260506114105 66 272 2.0 5.0 0.00 0.00 0.00 77 1009.6
20260506113605 66 237 3.0 6.0 0.00 0.00 0.00 77 1009.4
20260506113105 66 263 2.0 13.0 0.00 0.00 0.00 78 1009.4
20260506112605 66 258 7.0 13.0 0.00 0.00 0.00 77 1009.5
20260506111604 66 278 2.0 8.0 0.00 0.00 0.00 78 1009.5
20260506111105 66 192 2.0 6.0 0.00 0.01 0.00 78 1009.3
20260506110604 66 240 5.0 14.0 0.00 0.01 0.00 78 1009.3
20260506110105 66 220 2.0 9.0 0.00 0.01 0.00 78 1009.2
20260506105604 66 243 3.0 12.0 0.00 0.02 0.00 78 1009.3
20260506104605 66 254 3.0 13.0 0.00 0.02 0.00 78 1009.3
20260506104104 66 275 3.0 12.0 0.00 0.02 0.00 77 1009.3
20260506103606 66 247 4.0 8.0 0.00 0.02 0.00 77 1009.2
20260506103105 66 263 3.0 9.0 0.00 0.02 0.00 77 1009.2
20260506102605 66 260 5.0 12.0 0.00 0.02 0.00 77 1009.2
20260506102104 66 232 4.0 10.0 0.00 0.02 0.00 77 1009.1
20260506101104 66 275 4.0 12.0 0.00 0.02 0.00 77 1009.1
20260506100604 66 222 5.0 13.0 0.00 0.02 0.00 77 1008.9
20260506100104 65 247 2.0 12.0 0.00 0.02 0.00 77 1009.0
20260506095106 65 263 3.0 7.0 0.00 0.02 0.00 77 1009.0
20260506093605 65 243 2.0 7.0 0.00 0.02 0.00 77 1009.2
20260506093104 65 268 2.0 8.0 0.00 0.02 0.00 77 1009.1
20260506092605 65 250 3.0 9.0 0.00 0.02 0.00 76 1009.1
20260506092104 65 242 2.0 8.0 0.00 0.02 0.00 76 1009.1
20260506091604 65 227 2.0 9.0 0.00 0.02 0.00 75 1009.0
20260506090605 65 224 1.0 3.0 0.00 0.02 0.00 74 1009.1
20260506090104 65 260 3.0 7.0 0.00 0.02 0.00 74 1009.1
20260506085604 66 216 1.0 5.0 0.00 0.02 0.00 73 1009.1
20260506084605 66 248 3.0 10.0 0.00 0.02 0.00 72 1009.2
20260506084104 66 278 1.0 8.0 0.00 0.02 0.00 71 1009.2
20260506083606 66 252 2.0 6.0 0.00 0.02 0.00 71 1009.3
20260506083105 66 249 2.0 7.0 0.00 0.02 0.00 71 1009.3
20260506082105 67 218 1.0 7.0 0.00 0.02 0.00 70 1009.4
20260506081104 67 250 2.0 3.0 0.00 0.02 0.00 69 1009.4
20260506080104 67 238 1.0 8.0 0.00 0.02 0.00 68 1009.4
20260506073104 67 268 3.0 7.0 0.00 0.02 0.00 67 1009.4
20260506072104 67 279 2.0 5.0 0.00 0.02 0.00 67 1009.3
20260506071604 67 236 2.0 6.0 0.00 0.02 0.00 67 1009.3
20260506071104 68 277 2.0 6.0 0.00 0.02 0.00 67 1009.4
20260506070604 68 247 2.0 8.0 0.00 0.02 0.00 66 1009.6
20260506070106 68 284 2.0 6.0 0.00 0.02 0.00 66 1009.6
20260506061605 69 269 1.0 7.0 0.00 0.02 0.00 63 1009.6
20260506061105 69 236 2.0 8.0 0.00 0.02 0.00 63 1009.6
20260506060605 69 240 3.0 5.0 0.00 0.02 0.00 63 1009.6
20260506051104 70 205 3.0 9.0 0.00 0.02 0.00 61 1010.0
20260506050604 70 257 1.0 8.0 0.00 0.02 0.00 61 1010.1
20260506050105 70 250 2.0 9.0 0.00 0.02 0.00 61 1010.1
20260506045104 70 273 3.0 12.0 0.00 0.02 0.00 60 1010.1
20260506044104 71 251 3.0 17.0 0.00 0.02 0.00 59 1010.1
20260506043604 71 277 6.0 12.0 0.00 0.02 0.00 59 1010.1
20260506041604 71 252 3.0 9.0 0.00 0.02 0.00 57 1010.0
20260506041105 71 276 2.0 7.0 0.00 0.02 0.00 57 1009.9
20260506040605 72 267 5.0 14.0 0.00 0.02 0.00 56 1009.8
20260506040105 72 233 2.0 6.0 0.00 0.02 0.00 56 1009.8
20260506035606 72 238 2.0 20.0 0.00 0.02 0.02 56 1009.8
20260506034605 72 306 2.0 14.0 0.00 0.02 0.02 54 1009.9
20260506034104 72 283 5.0 14.0 0.00 0.02 0.02 53 1009.8
20260506033605 72 257 5.0 12.0 0.00 0.02 0.02 53 1009.7
20260506033105 72 288 1.0 12.0 0.00 0.02 0.02 52 1009.7
20260506032604 72 237 5.0 12.0 0.00 0.02 0.02 52 1009.7
20260506032104 73 255 3.0 8.0 0.00 0.02 0.02 51 1009.8
20260506031604 73 228 3.0 7.0 0.00 0.02 0.02 50 1009.7
20260506031104 73 259 3.0 9.0 0.00 0.02 0.02 50 1009.6
20260506030604 73 282 3.0 7.0 0.00 0.02 0.02 50 1009.6
20260506030104 74 277 2.0 7.0 0.00 0.02 0.02 49 1009.6
20260506025605 74 312 3.0 14.0 0.00 0.02 0.02 49 1009.6
20260506025104 74 275 3.0 14.0 0.00 0.02 0.02 48 1009.5
20260506024604 74 265 3.0 12.0 0.00 0.02 0.02 48 1009.4
20260506024104 74 218 5.0 16.0 0.00 0.02 0.02 48 1009.5
20260506023604 74 242 6.0 13.0 0.00 0.02 0.02 47 1009.4
20260506023104 75 258 4.0 15.0 0.00 0.02 0.02 47 1009.4
20260506022604 75 263 3.0 13.0 0.00 0.02 0.02 47 1009.4
20260506022104 75 253 4.0 12.0 0.00 0.02 0.02 47 1009.4
20260506021604 75 251 5.0 15.0 0.00 0.02 0.02 47 1009.4
20260506021105 75 244 5.0 15.0 0.00 0.02 0.02 47 1009.4